Weather reports worldwide

Advertisment
Aviemore, United Kingdom (3063): temperature & dewpoint: 17.01.2019 02:00:00 - 23.01.2019 02:00:00 (GMT)Aviemore, United Kingdom (3063): temperature -20cm & temperature -100cm: 17.01.2019 02:00:00 - 23.01.2019 02:00:00 (GMT)Aviemore, United Kingdom (3063): wind speed & gusts: 17.01.2019 02:00:00 - 23.01.2019 02:00:00 (GMT)Aviemore, United Kingdom (3063): wind direction: 17.01.2019 02:00:00 - 23.01.2019 02:00:00 (GMT)Aviemore, United Kingdom (3063): reduced air pressure: 17.01.2019 02:00:00 - 23.01.2019 02:00:00 (GMT)Aviemore, United Kingdom (3063): visibility: 17.01.2019 02:00:00 - 23.01.2019 02:00:00 (GMT)Aviemore, United Kingdom (3063): sunshine duration: 17.01.2019 02:00:00 - 23.01.2019 02:00:00 (GMT)Aviemore, United Kingdom (3063): precipitation: 17.01.2019 02:00:00 - 23.01.2019 02:00:00 (GMT)
Date & Time tt [°C] td [°C] tt -20cm [°C] tt -100cm [°C] ff [km/h] ff [kn] fx [km/h] fx [kn] dd ppp [hPa] vv [km] sd [min] rr [mm]
23.01.2019 02:00:00 -5,0 -5,3 - - 0 0 - - N 998,9 45 0 -
23.01.2019 01:00:00 -5,5 -6,4 - - 2 1 - - W 998,5 45 0 0,0
23.01.2019 00:00:00 -4,8 -5,4 - - 4 2 - - SSW 998,0 35 - 0,0
22.01.2019 23:00:00 -4,6 -5,3 - - 4 2 - - WSW 997,6 50 0 0,0
22.01.2019 22:00:00 -4,3 -5,7 - - 2 1 - - SW 997,2 30 0 0,0
22.01.2019 21:00:00 -3,4 -4,9 - - 4 2 - - SW 996,6 50 0 0,0
22.01.2019 20:00:00 -4,3 -5,9 - - 4 2 - - S 996,4 27 0 0,0
22.01.2019 19:00:00 -3,3 -4,6 - - 4 2 - - SSW 995,7 45 0 0,0
22.01.2019 18:00:00 -3,1 -4,8 - - 4 2 - - SW 995,3 45 0 0,0
22.01.2019 17:00:00 -2,6 -4,9 - - 4 2 - - SW 995,0 50 0 0,0
22.01.2019 16:00:00 -1,4 -3,5 - - 4 2 - - WSW 994,6 50 18 0,0
22.01.2019 15:00:00 -0,1 -1,8 - - 4 2 - - WSW 994,4 45 6 0,0
22.01.2019 14:00:00 1,0 -1,6 - - 11 6 - - S 994,3 21 54 0,0
22.01.2019 13:00:00 0,9 -1,6 - - 5 3 - - S 994,8 35 30 0,0
22.01.2019 12:00:00 -0,4 -2,7 - - 5 3 - - SSW 995,3 35 24 0,0
22.01.2019 11:00:00 -1,1 -2,9 - - 4 2 - - NNE 995,7 28 36 0,0
22.01.2019 10:00:00 -2,4 -3,8 - - 4 2 - - SSW 996,1 27 0 0,0
22.01.2019 09:00:00 -2,7 -4,4 2,2 4,7 5 3 - - WSW 996,1 27 0 0,0
22.01.2019 08:00:00 -1,6 -3,7 - - 4 2 - - SW 996,3 27 0 0,0
22.01.2019 07:00:00 -1,3 -3,1 - - 5 3 - - SW 996,1 40 0 0,0
22.01.2019 06:00:00 -0,5 -2,5 - - 5 3 - - SSW 996,4 45 0 0,0
22.01.2019 05:00:00 -0,2 -1,2 - - 8 4 - - SW 996,5 40 0 0,0
22.01.2019 04:00:00 0,0 -1,0 - - 8 4 - - SSW 996,9 35 0 0,0
22.01.2019 03:00:00 0,4 -0,8 - - 5 3 - - SSW 997,3 45 0 0,0
22.01.2019 02:00:00 0,6 -0,7 - - 5 3 - - SSW 997,6 35 0 0,0
22.01.2019 01:00:00 0,4 -0,6 - - 4 2 - - WSW 997,7 45 0 0,0
22.01.2019 00:00:00 0,7 -0,4 - - 4 2 - - SW 998,1 50 - 0,0
21.01.2019 23:00:00 0,8 0,2 - - 5 3 - - SSW 998,3 50 0 0,0
21.01.2019 22:00:00 1,0 0,3 - - 4 2 - - SSW 998,8 40 0 0,8
21.01.2019 21:00:00 1,8 0,5 - - 11 6 - - SW 998,5 8 0 0,4
21.01.2019 20:00:00 2,4 -0,1 - - 13 7 - - SW 998,6 16 0 0,0
21.01.2019 19:00:00 2,5 -0,4 - - 15 8 46 25 SW 999,3 50 0 0,0
21.01.2019 18:00:00 2,7 -0,6 - - 22 12 52 28 SW 999,7 50 0 0,0
21.01.2019 17:00:00 3,0 -1,0 - - 18 10 - - SSW 1001,2 50 0 0,0
21.01.2019 16:00:00 3,0 -0,7 - - 13 7 - - SW 1003,2 50 0 0,0
21.01.2019 15:00:00 2,9 -0,8 - - 13 7 - - SSW 1005,6 40 0 0,0
21.01.2019 14:00:00 3,0 -1,0 - - 15 8 - - SSW 1007,3 45 0 0,2
21.01.2019 13:00:00 2,9 -1,5 - - 22 12 52 28 SSW 1009,2 45 0 1,2
21.01.2019 12:00:00 2,8 -1,5 - - 18 10 52 28 SSW 1010,9 45 0 0,8
21.01.2019 11:00:00 2,8 -1,6 - - 22 12 55 30 SSW 1011,8 40 0 0,0
21.01.2019 10:00:00 2,5 -1,0 - - 24 13 46 25 SSW 1013,5 35 0 0,8
21.01.2019 09:00:00 2,1 -0,9 2,5 4,7 18 10 - - SSW 1014,9 40 0 0,0
21.01.2019 08:00:00 1,9 -0,7 - - 9 5 - - SW 1016,4 35 0 0,0
21.01.2019 07:00:00 1,8 -1,1 - - 9 5 - - SW 1018,2 40 0 0,0
21.01.2019 06:00:00 0,9 -2,1 - - 11 6 - - SW 1019,0 45 0 0,0
21.01.2019 05:00:00 1,1 -1,4 - - 9 5 - - SSW 1019,9 35 0 0,0
21.01.2019 04:00:00 0,3 -1,5 - - 8 4 - - SSW 1020,7 30 0 0,0
21.01.2019 03:00:00 -2,7 -3,8 - - 2 1 - - NNE 1022,0 29 0 0,0
21.01.2019 02:00:00 -2,6 -3,3 - - 4 2 - - ENE 1022,7 26 0 0,0
21.01.2019 01:00:00 -2,9 -3,8 - - 4 2 - - SSW 1023,6 27 0 0,0
21.01.2019 00:00:00 -2,3 -3,7 - - 5 3 - - NNE 1023,7 30 - 0,0
20.01.2019 23:00:00 -1,6 -3,8 - - 4 2 - - SW 1023,8 30 0 0,0
20.01.2019 22:00:00 -1,8 -3,9 - - 4 2 - - NE 1023,7 35 0 0,0
20.01.2019 21:00:00 -0,2 -3,7 - - 5 3 - - SW 1023,1 35 0 0,0
20.01.2019 20:00:00 -0,5 -2,9 - - 5 3 - - WSW 1022,7 23 0 0,0
20.01.2019 19:00:00 -0,1 -3,1 - - 4 2 - - SSE 1022,2 23 0 0,0
20.01.2019 18:00:00 0,6 -3,0 - - 5 3 - - WNW 1021,7 35 0 0,0
20.01.2019 17:00:00 0,8 -2,2 - - 4 2 - - WNW 1021,4 30 0 0,0
20.01.2019 16:00:00 0,6 -1,0 - - 4 2 - - W 1020,6 26 6 0,0
20.01.2019 15:00:00 3,6 -0,2 - - 5 3 - - W 1019,4 40 48 0,0
20.01.2019 14:00:00 2,4 -0,2 - - 5 3 - - SSW 1019,1 50 0 0,0
20.01.2019 13:00:00 1,1 0,5 - - 4 2 - - SW 1019,0 40 0 0,0
20.01.2019 12:00:00 0,9 0,5 - - 5 3 - - SE 1018,5 19 0 0,0
20.01.2019 11:00:00 0,6 0,2 - - 4 2 - - SW 1017,7 21 0 0,0
20.01.2019 10:00:00 0,4 -0,1 - - 4 2 - - SW 1016,7 4,4 0 0,0
20.01.2019 09:00:00 0,3 -0,5 2,7 4,9 5 3 - - SSW 1015,7 45 0 0,0
20.01.2019 08:00:00 -0,1 -0,7 - - 5 3 - - SSW 1015,0 45 0 0,0
20.01.2019 07:00:00 -0,4 -0,8 - - 2 1 - - SE 1014,5 50 0 0,0
20.01.2019 06:00:00 -0,5 -0,9 - - 2 1 - - SSW 1014,2 45 0 0,0
20.01.2019 05:00:00 -0,8 -1,1 - - 4 2 - - S 1013,9 19 0 0,0
20.01.2019 04:00:00 -0,9 -1,3 - - 2 1 - - SW 1013,6 35 0 0,0
20.01.2019 03:00:00 -1,0 -1,4 - - 2 1 - - SSW 1013,5 40 0 0,0
20.01.2019 02:00:00 -0,9 -1,3 - - 2 1 - - SW 1013,1 35 0 0,0
20.01.2019 01:00:00 -0,9 -1,3 - - 4 2 - - WSW 1012,9 50 0 0,0
20.01.2019 00:00:00 -0,9 -1,1 - - 4 2 - - WSW 1012,7 50 - 0,0
19.01.2019 23:00:00 -1,4 -1,6 - - 4 2 - - W 1012,3 50 0 0,0
19.01.2019 22:00:00 -2,9 -3,2 - - 4 2 - - WSW 1012,3 45 0 0,0
19.01.2019 21:00:00 -3,4 -3,8 - - 2 1 - - NW 1011,7 50 0 0,0
19.01.2019 20:00:00 -3,4 -3,8 - - 2 1 - - N 1011,3 30 0 0,0
19.01.2019 19:00:00 -4,2 -4,7 - - 2 1 - - N 1011,3 45 0 0,0
19.01.2019 18:00:00 -3,5 -4,1 - - 2 1 - - NW 1010,8 28 0 0,0
19.01.2019 17:00:00 -2,4 -3,1 - - 2 1 - - WNW 1010,0 35 0 0,0
19.01.2019 16:00:00 -0,9 -1,9 - - 2 1 - - NW 1009,5 50 12 0,0
19.01.2019 15:00:00 1,5 -1,4 - - 2 1 - - NNE 1008,8 40 60 0,0
19.01.2019 14:00:00 1,9 -1,2 - - 2 1 - - SE 1009,0 50 60 0,0
19.01.2019 13:00:00 0,7 -1,4 - - 4 2 - - E 1009,1 22 60 0,0
19.01.2019 12:00:00 0,2 -1,6 - - 2 1 - - SSE 1009,2 30 60 0,0
19.01.2019 11:00:00 -2,2 -2,7 - - 2 1 - - E 1009,6 17 12 0,0
19.01.2019 10:00:00 -3,6 -4,1 - - 2 1 - - ENE 1009,5 20 0 0,0
19.01.2019 09:00:00 -3,3 -3,5 3,2 5,0 4 2 - - W 1009,1 18 0 0,0
19.01.2019 08:00:00 -5,6 -6,1 - - 2 1 - - W 1009,0 25 0 0,0
19.01.2019 07:00:00 -6,5 -7,2 - - 2 1 - - SW 1008,8 29 0 0,0
19.01.2019 06:00:00 -6,4 -7,4 - - 2 1 - - W 1008,7 29 0 0,0
19.01.2019 05:00:00 -5,9 -6,5 - - 2 1 - - SSW 1008,4 22 0 0,0
19.01.2019 04:00:00 -6,2 -7,0 - - 2 1 - - N 1008,5 26 0 0,0
19.01.2019 03:00:00 -5,2 -6,1 - - 2 1 - - WSW 1008,4 17 0 0,0
19.01.2019 02:00:00 -4,3 -5,1 - - 4 2 - - W 1008,5 21 0 0,0
19.01.2019 01:00:00 -3,5 -4,8 - - 2 1 - - NNW 1008,6 24 0 0,0
19.01.2019 00:00:00 -2,1 -3,4 - - 4 2 - - N 1008,6 29 - 0,0
18.01.2019 23:00:00 -1,9 -3,6 - - 4 2 - - NE 1008,6 35 0 0,0
18.01.2019 22:00:00 -1,8 -3,4 - - 5 3 - - NE 1008,5 45 0 0,0
18.01.2019 21:00:00 -2,6 -3,9 - - 2 1 - - NE 1008,8 35 0 0,0
18.01.2019 20:00:00 -2,7 -4,6 - - 2 1 - - NNE 1008,8 40 0 0,0
18.01.2019 19:00:00 -2,7 -4,5 - - 4 2 - - NNE 1008,8 45 0 0,0
18.01.2019 18:00:00 -3,0 -4,5 - - 4 2 - - NNW 1009,1 45 0 0,0
18.01.2019 17:00:00 -4,2 -6,1 - - 4 2 - - NNW 1009,5 45 0 0,0
18.01.2019 16:00:00 -2,6 -4,5 - - 4 2 - - N 1009,6 45 0 0,0
18.01.2019 15:00:00 -2,6 -4,7 - - 4 2 - - WSW 1009,9 35 0 0,0
18.01.2019 14:00:00 -0,9 -3,5 - - 2 1 - - NNE 1010,5 25 48 0,0
18.01.2019 13:00:00 -0,5 -2,7 - - 2 1 - - E 1010,9 24 48 0,0
18.01.2019 12:00:00 -1,5 -2,9 - - 2 1 - - E 1011,9 19 54 0,0
18.01.2019 11:00:00 -2,9 -3,2 - - 2 1 - - N 1012,7 20 60 0,0
18.01.2019 10:00:00 -5,5 -5,9 - - 5 3 - - NE 1013,0 25 12 0,0
18.01.2019 09:00:00 -7,9 -8,8 3,7 5,2 2 1 - - N 1013,4 23 0 0,0
18.01.2019 08:00:00 -8,1 -9,0 - - 2 1 - - S 1013,6 22 0 0,0
18.01.2019 07:00:00 -7,7 -8,7 - - 2 1 - - WNW 1013,9 21 0 0,0
18.01.2019 06:00:00 -7,2 -8,1 - - 4 2 - - E 1014,0 19 0 0,0
18.01.2019 05:00:00 -6,1 -6,5 - - 4 2 - - NE 1014,3 2,0 0 0,0
18.01.2019 04:00:00 -6,8 -7,7 - - 0 0 - - N 1014,9 21 0 0,0
18.01.2019 03:00:00 -5,8 -6,4 - - 0 0 - - N 1015,4 14 0 0,0
18.01.2019 02:00:00 -5,0 -5,7 - - 2 1 - - NE 1015,7 15 0 0,0
18.01.2019 01:00:00 -4,4 -5,0 - - 2 1 - - SW 1016,2 13 0 0,0
18.01.2019 00:00:00 -3,8 -4,6 - - 0 0 - - N 1016,4 17 - 0,0
17.01.2019 23:00:00 -3,4 -4,3 - - 2 1 - - E 1016,7 19 0 0,0
17.01.2019 22:00:00 -3,0 -4,1 - - 2 1 - - WSW 1017,0 19 0 0,0
17.01.2019 21:00:00 -2,5 -3,7 - - 4 2 - - E 1017,4 20 0 0,0
17.01.2019 20:00:00 -2,2 -3,7 - - 2 1 - - NE 1017,3 17 0 0,0
17.01.2019 19:00:00 -1,5 -3,3 - - 2 1 - - SW 1017,3 17 0 0,0
17.01.2019 18:00:00 -1,8 -3,3 - - 4 2 - - WSW 1016,7 21 0 0,0
17.01.2019 17:00:00 -1,6 -3,5 - - 4 2 - - SSW 1016,7 15 0 0,0
17.01.2019 16:00:00 0,2 -3,2 - - 5 3 - - W 1016,0 22 0 0,0
17.01.2019 15:00:00 0,3 -3,0 - - 2 1 - - W 1016,0 19 12 0,0
17.01.2019 14:00:00 0,8 -2,6 - - 5 3 - - W 1015,4 24 12 0,0
17.01.2019 13:00:00 1,4 -2,6 - - 4 2 - - SSW 1015,2 29 48 0,0
17.01.2019 12:00:00 0,7 -2,8 - - 4 2 - - W 1014,6 29 48 0,0
17.01.2019 11:00:00 0,1 -2,6 - - 9 5 - - NW 1014,3 30 0 0,0
17.01.2019 10:00:00 -0,7 -3,2 - - 9 5 - - NNW 1013,8 24 0 0,0
17.01.2019 09:00:00 -0,7 -2,7 4,2 5,2 8 4 - - NNW 1013,1 25 0 0,0
17.01.2019 08:00:00 -0,6 -2,5 - - 8 4 - - NW 1011,5 8 0 0,0
17.01.2019 07:00:00 -0,7 -2,6 - - 5 3 - - N 1010,7 8 0 0,0
17.01.2019 06:00:00 -0,9 -2,9 - - 8 4 - - NNW 1009,4 45 0 0,0
17.01.2019 05:00:00 -0,7 -2,6 - - 9 5 - - NNW 1008,2 19 0 0,0
17.01.2019 04:00:00 -0,9 -2,5 - - 5 3 - - NNW 1007,3 3,6 0 0,0
17.01.2019 03:00:00 -1,2 -2,8 - - 8 4 - - N 1006,6 1,1 0 0,0
17.01.2019 02:00:00 -2,0 -4,1 - - 5 3 - - NNW 1005,6 50 0 0,0

tt = temperature
td = dewpoint
tt -20cm = temperature -20cm
tt -100cm = temperature -100cm
ff = wind speed
fx = gusts
dd = wind direction
ppp = reduced air pressure
vv = visibility
sd = sunshine duration
rr = precipitation

Next stations